KS5S Weather Reports


Display with metric or nautical units.
time (UTC)temp
F
wind
direction
speed
MPH
gust
MPH
rain 1hr
in
rain 24hr
in
rain mn
in
humidity
%
barometer
mb
20260510151249 77 133 4.0 17.0 0.00 0.00 0.00 75 1012.2
20260510150744 77 131 8.0 18.0 0.00 0.00 0.00 76 1012.2
20260510150240 76 143 16.0 24.0 0.00 0.00 0.00 76 1012.3
20260510145736 75 137 9.0 23.0 0.00 0.00 0.00 78 1012.3
20260510145233 75 142 12.0 20.0 0.00 0.00 0.00 78 1012.3
20260510144728 75 145 4.0 10.0 0.00 0.00 0.00 78 1012.7
20260510144226 74 127 5.0 20.0 0.00 0.00 0.00 78 1012.2
20260510143720 74 161 13.0 16.0 0.00 0.00 0.00 77 1012.5
20260510143217 74 120 15.0 20.0 0.00 0.00 0.00 77 1012.4
20260510142713 74 112 4.0 18.0 0.00 0.00 0.00 77 1012.6
20260510142210 74 146 7.0 20.0 0.00 0.00 0.00 77 1012.4
20260510141707 74 132 7.0 17.0 0.00 0.00 0.00 76 1012.7
20260510141206 73 104 4.0 14.0 0.00 0.00 0.00 77 1012.3
20260510140702 73 154 5.0 14.0 0.00 0.00 0.00 77 1012.5
20260510140202 73 111 11.0 16.0 0.00 0.00 0.00 77 1012.6
20260510135656 73 110 13.0 18.0 0.00 0.00 0.00 77 1012.8
20260510135153 72 118 10.0 17.0 0.00 0.00 0.00 77 1012.5
20260510134650 72 121 5.0 21.0 0.00 0.00 0.00 78 1012.6
20260510134147 72 123 9.0 22.0 0.00 0.00 0.00 77 1012.6
20260510133643 72 105 6.0 13.0 0.00 0.00 0.00 77 1012.5
20260510133139 72 125 5.0 20.0 0.00 0.00 0.00 78 1012.6
20260510132636 72 125 9.0 16.0 0.00 0.00 0.00 78 1012.5
20260510132133 72 89 7.0 13.0 0.00 0.00 0.00 79 1012.7
20260510131630 71 119 4.0 15.0 0.00 0.00 0.00 80 1012.5
20260510131128 71 168 3.0 12.0 0.00 0.00 0.00 81 1012.5
20260510130624 71 120 7.0 14.0 0.00 0.00 0.00 81 1012.6
20260510130121 71 87 4.0 16.0 0.00 0.00 0.00 81 1012.7
20260510125618 71 120 6.0 14.0 0.00 0.00 0.00 81 1012.4
20260510125114 71 105 5.0 12.0 0.00 0.00 0.00 81 1012.4
20260510124611 71 104 6.0 17.0 0.00 0.00 0.00 81 1012.2
20260510124108 71 134 11.0 17.0 0.00 0.00 0.00 82 1012.1
20260510123603 70 94 8.0 16.0 0.00 0.00 0.00 82 1011.9
20260510123059 70 97 6.0 19.0 0.00 0.00 0.00 82 1012.1
20260510122555 70 123 4.0 15.0 0.00 0.00 0.00 82 1012.0
20260510122051 70 122 3.0 15.0 0.00 0.00 0.00 82 1012.1
20260510121549 71 105 5.0 21.0 0.00 0.00 0.00 82 1012.0
20260510121046 71 105 4.0 17.0 0.00 0.00 0.00 82 1011.9
20260510120544 71 112 10.0 17.0 0.00 0.00 0.00 83 1012.0
20260510120038 71 100 11.0 14.0 0.00 0.00 0.00 83 1011.9
20260510115536 71 94 7.0 14.0 0.00 0.00 0.00 84 1012.0
20260510115033 71 101 6.0 13.0 0.00 0.00 0.00 85 1011.4
20260510114528 72 101 17.0 18.0 0.00 0.00 0.00 85 1011.5
20260510114025 72 118 5.0 22.0 0.00 0.00 0.00 87 1011.7
20260510113520 72 91 5.0 20.0 0.00 0.00 0.00 88 1011.7
20260510113018 73 98 8.0 13.0 0.00 0.00 0.00 90 1011.4
20260510112514 73 104 4.0 17.0 0.00 0.00 0.00 92 1011.5
20260510112010 73 111 7.0 16.0 0.00 0.00 0.00 92 1011.3
20260510111508 73 113 10.0 14.0 0.00 0.00 0.00 92 1011.2
20260510111003 73 83 8.0 15.0 0.00 0.00 0.00 92 1011.2
20260510110500 73 97 11.0 18.0 0.00 0.00 0.00 92 1011.1
20260510105956 73 86 12.0 14.0 0.00 0.00 0.00 92 1011.2
20260510105451 73 49 7.0 17.0 0.00 0.00 0.00 92 1011.2
20260510104946 73 82 6.0 13.0 0.00 0.00 0.00 91 1011.1
20260510104443 73 89 4.0 13.0 0.00 0.00 0.00 90 1011.0
20260510103939 72 82 9.0 13.0 0.00 0.00 0.00 91 1011.2
20260510103437 72 81 9.0 14.0 0.00 0.00 0.00 90 1011.1
20260510102932 72 98 2.0 11.0 0.00 0.00 0.00 91 1011.0
20260510102428 72 71 5.0 15.0 0.00 0.00 0.00 91 1010.6
20260510101925 72 54 3.0 8.0 0.00 0.00 0.00 91 1010.8
20260510101423 71 81 5.0 10.0 0.00 0.00 0.00 91 1010.7
20260510100921 71 82 6.0 9.0 0.00 0.00 0.00 91 1010.5
20260510100417 71 73 4.0 7.0 0.00 0.00 0.00 91 1010.5
20260510095913 71 67 4.0 8.0 0.00 0.00 0.00 91 1010.5
20260510095409 71 48 3.0 9.0 0.00 0.00 0.00 91 1010.4
20260510094908 71 45 9.0 13.0 0.00 0.00 0.00 91 1010.4
20260510094403 71 29 3.0 6.0 0.00 0.00 0.00 91 1010.2
20260510093900 71 68 4.0 5.0 0.00 0.00 0.00 92 1010.1
20260510093355 71 61 3.0 4.0 0.00 0.00 0.00 92 1009.9
20260510092852 71 77 4.0 5.0 0.00 0.00 0.00 92 1009.9
20260510092349 71 48 5.0 8.0 0.00 0.00 0.00 92 1009.6
20260510091844 71 30 1.0 4.0 0.00 0.00 0.00 91 1009.7
20260510091341 72 353 1.0 5.0 0.00 0.00 0.00 91 1009.5
20260510090837 72 41 3.0 4.0 0.00 0.00 0.00 90 1009.7
20260510090329 72 36 2.0 3.0 0.00 0.00 0.00 89 1009.5
20260510085824 73 77 3.0 4.0 0.00 0.00 0.00 88 1009.4
20260510085324 73 43 4.0 6.0 0.00 0.00 0.00 85 1009.3
20260510084820 74 119 3.0 4.0 0.00 0.00 0.00 84 1009.1
20260510084317 74 143 0.0 5.0 0.00 0.00 0.00 83 1008.6
20260510083814 75 148 1.0 7.0 0.00 0.00 0.00 83 1008.8
20260510083311 74 117 1.0 7.0 0.00 0.00 0.00 84 1008.5
20260510082806 75 141 0.0 5.0 0.00 0.00 0.00 84 1008.6
20260510082306 75 183 2.0 6.0 0.00 0.00 0.00 83 1008.5
20260510081802 75 169 1.0 6.0 0.00 0.00 0.00 83 1008.3
20260510081259 75 185 5.0 8.0 0.00 0.00 0.00 83 1008.2
20260510080754 75 198 3.0 6.0 0.00 0.00 0.00 84 1008.3
20260510080250 75 162 4.0 7.0 0.00 0.00 0.00 84 1008.3
20260510075747 75 162 3.0 8.0 0.00 0.00 0.00 85 1008.1
20260510075244 75 175 4.0 8.0 0.00 0.00 0.00 85 1008.1
20260510074741 75 139 3.0 8.0 0.00 0.00 0.00 85 1008.3
20260510074238 75 147 5.0 6.0 0.00 0.00 0.00 86 1008.7
20260510073734 74 154 3.0 5.0 0.00 0.00 0.00 86 1008.6
20260510073230 75 102 1.0 3.0 0.00 0.00 0.00 86 1008.8
20260510072726 75 114 0.0 2.0 0.00 0.00 0.00 85 1008.6
20260510072223 75 174 0.0 2.0 0.00 0.00 0.00 86 1008.5
20260510071719 75 156 1.0 2.0 0.00 0.00 0.00 86 1008.7
20260510071216 75 347 1.0 2.0 0.00 0.00 0.00 86 1008.7
20260510070714 75 333 2.0 4.0 0.00 0.00 0.00 85 1009.1
20260510070211 75 8 2.0 4.0 0.00 0.00 0.00 84 1008.9
20260510065706 76 305 2.0 2.0 0.00 0.00 0.00 84 1008.5
20260510065203 76 255 0.0 5.0 0.00 0.00 0.00 84 1007.9
20260510064659 76 174 3.0 6.0 0.00 0.00 0.00 83 1007.8
20260510064156 76 192 1.0 6.0 0.00 0.00 0.00 82 1007.8
20260510063654 77 193 3.0 9.0 0.00 0.00 0.00 82 1007.7
20260510063150 77 167 3.0 6.0 0.00 0.00 0.00 81 1007.7
20260510062646 77 188 8.0 10.0 0.00 0.00 0.00 80 1007.8
20260510062142 77 180 7.0 12.0 0.00 0.00 0.00 80 1007.7
20260510061637 78 166 7.0 9.0 0.00 0.00 0.00 79 1007.4
20260510061135 78 186 7.0 14.0 0.00 0.00 0.00 78 1007.4
20260510060631 78 166 4.0 13.0 0.00 0.00 0.00 78 1007.3
20260510060128 78 242 1.0 15.0 0.00 0.00 0.00 77 1007.3
20260510055624 78 181 7.0 9.0 0.00 0.00 0.00 77 1007.3
20260510055123 78 202 4.0 13.0 0.00 0.00 0.00 75 1007.2
20260510054617 78 171 3.0 10.0 0.00 0.00 0.00 74 1007.2
20260510054112 78 167 8.0 11.0 0.00 0.00 0.00 74 1007.3
20260510053607 78 169 7.0 11.0 0.00 0.00 0.00 74 1007.3
20260510053104 78 148 6.0 12.0 0.00 0.00 0.00 73 1007.2
20260510052600 78 167 7.0 12.0 0.00 0.00 0.00 73 1007.0
20260510052056 78 180 3.0 10.0 0.00 0.00 0.00 73 1007.1
20260510051551 78 155 8.0 11.0 0.00 0.00 0.00 72 1006.9
20260510051048 78 180 7.0 10.0 0.00 0.00 0.00 71 1006.8
20260510050540 78 177 9.0 13.0 0.00 0.00 0.00 70 1006.9
20260510050037 78 168 5.0 11.0 0.00 0.00 0.00 69 1006.7
20260510045535 79 165 4.0 11.0 0.00 0.00 0.00 68 1007.0
20260510045030 79 199 3.0 11.0 0.00 0.00 0.00 67 1007.2
20260510044527 79 159 6.0 16.0 0.00 0.00 0.00 66 1006.9
20260510044025 78 167 5.0 8.0 0.00 0.00 0.00 65 1007.0
20260510043520 78 140 4.0 10.0 0.00 0.00 0.00 64 1007.2
20260510043015 78 157 4.0 7.0 0.00 0.00 0.00 64 1007.1
20260510042510 78 155 4.0 9.0 0.00 0.00 0.00 64 1007.0
20260510042005 78 156 5.0 10.0 0.00 0.00 0.00 64 1007.2
20260510041503 78 122 3.0 10.0 0.00 0.00 0.00 65 1007.1
20260510041000 77 168 4.0 6.0 0.00 0.00 0.00 68 1007.0
20260510040456 77 129 2.0 7.0 0.00 0.00 0.00 68 1007.1
20260510035952 77 138 3.0 6.0 0.00 0.00 0.00 68 1007.5
20260510035449 77 75 3.0 6.0 0.00 0.00 0.00 68 1007.3
20260510034948 78 94 1.0 8.0 0.00 0.00 0.00 69 1007.2
20260510034447 77 143 2.0 9.0 0.00 0.00 0.00 70 1007.3
20260510033943 77 126 5.0 7.0 0.00 0.00 0.00 70 1007.3
20260510033439 77 144 3.0 7.0 0.00 0.00 0.00 71 1007.3
20260510032937 77 154 5.0 6.0 0.00 0.00 0.00 71 1007.5
20260510032434 77 93 4.0 6.0 0.00 0.00 0.00 70 1007.3
20260510031928 77 126 4.0 7.0 0.00 0.00 0.00 70 1007.3
20260510031424 77 110 5.0 6.0 0.00 0.00 0.00 69 1007.3
20260510030920 77 113 2.0 5.0 0.00 0.00 0.00 69 1007.2
20260510030416 78 129 2.0 6.0 0.00 0.00 0.00 68 1007.1
20260510025914 78 111 1.0 4.0 0.00 0.00 0.00 67 1007.2
20260510025410 78 111 2.0 4.0 0.00 0.00 0.00 66 1007.3
20260510024908 80 83 1.0 9.0 0.00 0.00 0.00 62 1007.2
20260510024404 80 175 1.0 3.0 0.00 0.00 0.00 59 1007.0
20260510023900 80 169 0.0 4.0 0.00 0.00 0.00 60 1007.1
20260510023357 80 146 2.0 4.0 0.00 0.00 0.00 60 1006.9
20260510022854 80 134 2.0 4.0 0.00 0.00 0.00 60 1007.0
20260510022353 80 222 0.0 3.0 0.00 0.00 0.00 60 1006.8
20260510021852 81 150 4.0 4.0 0.00 0.00 0.00 59 1006.8
20260510021350 81 216 1.0 4.0 0.00 0.00 0.00 60 1006.6
20260510020847 81 147 0.0 4.0 0.00 0.00 0.00 61 1006.6
20260510020347 81 148 1.0 3.0 0.00 0.00 0.00 61 1006.5
20260510015842 81 159 2.0 3.0 0.00 0.00 0.00 61 1006.3
20260510015338 81 154 1.0 4.0 0.00 0.00 0.00 61 1006.4
20260510014834 81 147 1.0 5.0 0.00 0.00 0.00 61 1006.4
20260510014331 81 161 0.0 3.0 0.00 0.00 0.00 62 1006.3
20260510013827 82 135 2.0 3.0 0.00 0.00 0.00 61 1006.2
20260510013323 82 100 0.0 3.0 0.00 0.00 0.00 61 1006.0
20260510012818 82 180 0.0 5.0 0.00 0.00 0.00 60 1006.1
20260510012318 82 147 1.0 3.0 0.00 0.00 0.00 60 1006.3
20260510011813 82 162 1.0 2.0 0.00 0.00 0.00 60 1006.1
20260510011309 83 173 0.0 2.0 0.00 0.00 0.00 59 1006.0
20260510010806 83 126 0.0 2.0 0.00 0.00 0.00 59 1006.1
20260510010303 84 173 1.0 4.0 0.00 0.00 0.00 58 1006.1
20260510005759 84 146 0.0 3.0 0.00 0.00 0.00 57 1006.1
20260510005255 85 89 0.0 3.0 0.00 0.00 0.00 56 1005.9
20260510004754 85 148 0.0 3.0 0.00 0.00 0.00 55 1005.9
20260510004251 86 141 0.0 5.0 0.00 0.00 0.00 54 1005.9
20260510003748 87 166 0.0 3.0 0.00 0.00 0.00 53 1005.9
20260510003245 87 173 2.0 3.0 0.00 0.00 0.00 53 1005.9
20260510002743 87 149 1.0 3.0 0.00 0.00 0.00 52 1005.9
20260510002241 88 5 0.0 3.0 0.00 0.00 0.00 52 1005.9
20260510001737 88 38 0.0 2.0 0.00 0.00 0.00 52 1005.8
20260510001236 88 230 0.0 5.0 0.00 0.00 0.00 52 1005.7
20260510000732 89 60 0.0 3.0 0.00 0.00 0.00 50 1006.0
20260510000229 89 322 1.0 3.0 0.00 0.00 0.00 49 1005.9
20260509235726 89 159 2.0 3.0 0.00 0.00 0.00 48 1005.9
20260509235222 89 104 2.0 6.0 0.00 0.00 0.00 48 1005.6
20260509234718 90 105 1.0 3.0 0.00 0.00 0.00 48 1005.8
20260509234215 90 195 0.0 3.0 0.00 0.00 0.00 48 1006.1
20260509233714 91 269 0.0 1.0 0.00 0.00 0.00 47 1005.8
20260509233211 90 65 2.0 2.0 0.00 0.00 0.00 45 1005.9
20260509232707 90 85 1.0 3.0 0.00 0.00 0.00 46 1005.9
20260509232204 90 107 1.0 4.0 0.00 0.00 0.00 46 1006.0
20260509231700 90 131 3.0 5.0 0.00 0.00 0.00 45 1006.0
20260509231158 91 80 3.0 3.0 0.00 0.00 0.00 44 1005.7
20260509230655 90 21 1.0 4.0 0.00 0.00 0.00 46 1005.7
20260509230151 91 60 0.0 3.0 0.00 0.00 0.00 47 1005.9
20260509225647 90 113 1.0 7.0 0.00 0.00 0.00 45 1005.7
20260509225143 92 298 1.0 3.0 0.00 0.00 0.00 43 1005.7
20260509224639 91 3 0.0 3.0 0.00 0.00 0.00 43 1005.7
20260509224136 91 347 1.0 3.0 0.00 0.00 0.00 44 1005.7
20260509223632 90 17 3.0 5.0 0.00 0.00 0.00 45 1005.7
20260509223130 90 36 2.0 5.0 0.00 0.00 0.00 43 1005.8
20260509222627 90 98 1.0 6.0 0.00 0.00 0.00 43 1005.8
20260509222122 91 22 0.0 4.0 0.00 0.00 0.00 45 1006.0
20260509221618 91 181 1.0 4.0 0.00 0.00 0.00 44 1005.6
20260509221114 91 120 1.0 6.0 0.00 0.00 0.00 45 1005.8
20260509220610 91 129 0.0 3.0 0.00 0.00 0.00 47 1005.8
20260509220107 91 351 1.0 4.0 0.00 0.00 0.00 42 1005.7
20260509215602 91 55 2.0 5.0 0.00 0.00 0.00 44 1005.5
20260509215100 91 296 3.0 6.0 0.00 0.00 0.00 45 1005.5
20260509214557 92 298 4.0 7.0 0.00 0.00 0.00 44 1005.7
20260509214053 91 282 2.0 5.0 0.00 0.00 0.00 44 1005.9
20260509213549 92 313 3.0 5.0 0.00 0.00 0.00 45 1005.6
20260509213046 91 331 2.0 5.0 0.00 0.00 0.00 48 1006.1
20260509212543 91 293 2.0 7.0 0.00 0.00 0.00 47 1006.3
20260509212040 91 299 5.0 7.0 0.00 0.00 0.00 44 1006.2
20260509211536 92 331 1.0 3.0 0.00 0.00 0.00 45 1006.4
20260509211033 92 265 2.0 7.0 0.00 0.00 0.00 43 1006.3
20260509210530 93 356 1.0 3.0 0.00 0.00 0.00 42 1006.4
20260509210026 91 67 1.0 4.0 0.00 0.00 0.00 43 1006.6
20260509205526 92 74 2.0 4.0 0.00 0.00 0.00 45 1006.6
20260509205021 92 290 0.0 2.0 0.00 0.00 0.00 44 1006.5
20260509204518 91 267 3.0 5.0 0.00 0.00 0.00 47 1006.7
20260509204014 91 211 3.0 4.0 0.00 0.00 0.00 45 1006.6
20260509203510 90 137 0.0 3.0 0.00 0.00 0.00 47 1006.8
20260509203009 90 298 4.0 5.0 0.00 0.00 0.00 45 1006.7
20260509202503 90 0 3.0 7.0 0.00 0.00 0.00 46 1006.9
20260509201959 90 7 1.0 4.0 0.00 0.00 0.00 45 1006.9
20260509201454 91 316 2.0 4.0 0.00 0.00 0.00 49 1006.9
20260509200952 90 267 4.0 6.0 0.00 0.00 0.00 46 1007.0
20260509200447 89 247 3.0 4.0 0.00 0.00 0.00 47 1006.9
20260509195943 90 286 4.0 5.0 0.00 0.00 0.00 48 1007.0
20260509195438 90 0 4.0 5.0 0.00 0.00 0.00 48 1007.1
20260509194933 91 262 3.0 5.0 0.00 0.00 0.00 47 1007.3
20260509194428 90 261 1.0 4.0 0.00 0.00 0.00 50 1007.1
20260509193926 89 282 3.0 3.0 0.00 0.00 0.00 48 1007.2
20260509193425 89 294 4.0 9.0 0.00 0.00 0.00 49 1007.4
20260509192921 89 255 6.0 7.0 0.00 0.00 0.00 49 1007.3
20260509192412 89 311 6.0 8.0 0.00 0.00 0.00 48 1007.4
20260509191907 89 331 2.0 3.0 0.00 0.00 0.00 49 1007.4
20260509191403 89 246 1.0 6.0 0.00 0.00 0.00 48 1007.3
20260509190859 89 269 0.0 4.0 0.00 0.00 0.00 48 1007.3
20260509190356 88 152 0.0 3.0 0.00 0.00 0.00 49 1007.4
20260509185854 88 56 3.0 5.0 0.00 0.00 0.00 48 1007.5
20260509185350 87 317 1.0 5.0 0.00 0.00 0.00 47 1007.7
20260509184848 87 349 3.0 5.0 0.00 0.00 0.00 50 1007.7
20260509184344 87 307 8.0 8.0 0.00 0.00 0.00 49 1007.9
20260509183841 88 332 2.0 7.0 0.00 0.00 0.00 48 1007.8
20260509183336 87 314 3.0 6.0 0.00 0.00 0.00 50 1007.7
20260509182833 87 283 7.0 8.0 0.00 0.00 0.00 49 1007.9
20260509182330 87 319 4.0 9.0 0.00 0.00 0.00 50 1007.9
20260509181827 87 96 0.0 7.0 0.00 0.00 0.00 51 1007.9
20260509181324 87 262 5.0 8.0 0.00 0.00 0.00 49 1008.1
20260509180822 87 306 2.0 5.0 0.00 0.00 0.00 49 1008.0
20260509180317 86 312 7.0 9.0 0.00 0.00 0.00 50 1008.1
20260509175814 86 350 3.0 7.0 0.00 0.00 0.00 53 1008.1
20260509175311 86 289 5.0 9.0 0.00 0.00 0.00 51 1008.3
20260509174807 87 294 5.0 6.0 0.00 0.00 0.00 50 1008.3
20260509174302 86 315 5.0 6.0 0.00 0.00 0.00 50 1008.1
20260509173758 87 291 3.0 7.0 0.00 0.00 0.00 52 1008.3
20260509173254 86 348 3.0 5.0 0.00 0.00 0.00 51 1008.4
20260509172750 86 354 3.0 5.0 0.00 0.00 0.00 49 1008.4
20260509172247 86 288 4.0 7.0 0.00 0.00 0.00 50 1008.4
20260509171743 85 277 4.0 11.0 0.00 0.00 0.00 54 1008.5
20260509171239 86 294 5.0 11.0 0.00 0.00 0.00 50 1008.6
20260509170736 86 306 9.0 14.0 0.00 0.00 0.00 52 1008.6
20260509170232 85 299 4.0 8.0 0.00 0.00 0.00 53 1008.6
20260509165731 85 277 5.0 7.0 0.00 0.00 0.00 51 1008.6
20260509165226 85 348 2.0 6.0 0.00 0.00 0.00 52 1008.7
20260509164722 85 349 3.0 5.0 0.00 0.00 0.00 55 1008.5
20260509164218 85 303 9.0 11.0 0.00 0.00 0.00 54 1008.7
20260509163715 85 296 3.0 5.0 0.00 0.00 0.00 52 1008.7
20260509163212 84 0 2.0 7.0 0.00 0.00 0.00 52 1008.8
20260509162709 84 22 3.0 7.0 0.00 0.00 0.00 51 1008.8
20260509162205 84 0 3.0 5.0 0.00 0.00 0.00 52 1008.8
20260509161700 84 286 4.0 5.0 0.00 0.00 0.00 53 1008.8
20260509161156 84 295 3.0 8.0 0.00 0.00 0.00 54 1008.8
20260509160652 84 281 3.0 7.0 0.00 0.00 0.00 52 1008.8
20260509160148 83 344 2.0 5.0 0.00 0.00 0.00 59 1008.6
20260509155644 83 311 3.0 6.0 0.00 0.00 0.00 58 1008.8
20260509155140 83 311 4.0 7.0 0.00 0.00 0.00 57 1009.1
20260509154636 82 308 2.0 8.0 0.00 0.00 0.00 62 1009.2
20260509154133 82 290 4.0 7.0 0.00 0.00 0.00 61 1008.9
20260509153630 82 296 3.0 7.0 0.00 0.00 0.00 62 1009.1
20260509153127 82 359 4.0 7.0 0.00 0.00 0.00 61 1009.0
20260509152623 81 322 4.0 8.0 0.00 0.00 0.00 62 1008.9
20260509152121 81 339 3.0 7.0 0.00 0.00 0.00 66 1008.8
20260509151617 81 350 5.0 5.0 0.00 0.00 0.00 65 1008.9